• In Uzbekistan
  • List of Countries
  • For 7 days
  • Water Temperature
  • Satellite Maps
  • Weather Map
  • Weather Widgets
  • user-avatar
    Login

    Hourly Weather Ashtarak

    Today, 20 October, Friday

    Time Temperature Precipitation Wind Pressure Humidity
    00:00 +10°C° 0 mm 1 mps 659 mmHg 48%
    01:00 +9°C° 0 mm 1 mps 659 mmHg 48%
    02:00 +9°C° 0 mm 1 mps 659 mmHg 49%
    03:00 +9°C° 0 mm 1 mps 658 mmHg 50%
    04:00 +9°C° 0 mm 1 mps 658 mmHg 52%
    05:00 +8°C° 0 mm 1 mps 658 mmHg 54%
    06:00 +8°C° 0 mm 1 mps 658 mmHg 56%
    07:00 +10°C° 0 mm 1 mps 659 mmHg 50%
    08:00 +12°C° 0 mm 1 mps 659 mmHg 45%
    09:00 +14°C° 0 mm 1 mps 660 mmHg 40%
    10:00 +15°C° 0 mm 1 mps 660 mmHg 37%
    11:00 +16°C° 0 mm 1 mps 660 mmHg 34%
    12:00 +17°C° 0 mm 2 mps 660 mmHg 30%
    13:00 +19°C° 0 mm 1 mps 660 mmHg 30%
    14:00 +19°C° 0 mm 1 mps 659 mmHg 29%
    15:00 +19°C° 0 mm 1 mps 659 mmHg 28%
    16:00 +16°C° 0 mm 1 mps 659 mmHg 33%
    17:00 +14°C° 0 mm 1 mps 659 mmHg 37%
    18:00 +12°C° 0 mm 1 mps 658 mmHg 42%
    19:00 +12°C° 0 mm 1 mps 658 mmHg 43%
    20:00 +12°C° 0 mm 1 mps 658 mmHg 44%
    21:00 +11°C° 0 mm 1 mps 659 mmHg 45%
    22:00 +11°C° 0 mm 1 mps 659 mmHg 46%
    23:00 +10°C° 0 mm 1 mps 658 mmHg 48%

    Tomorrow, 21 October, Saturday

    Time Temperature Precipitation Wind Pressure Humidity
    00:00 +10°C° 0 mm 1 mps 658 mmHg 49%
    01:00 +10°C° 0 mm 1 mps 658 mmHg 50%
    02:00 +9°C° 0 mm 1 mps 658 mmHg 51%
    03:00 +9°C° 0 mm 1 mps 658 mmHg 52%
    04:00 +8°C° 0 mm 0 mps 658 mmHg 53%
    05:00 +7°C° 0 mm 0 mps 658 mmHg 54%
    06:00 +7°C° 0 mm 0 mps 657 mmHg 55%
    07:00 +10°C° 0 mm 1 mps 658 mmHg 48%
    08:00 +12°C° 0 mm 1 mps 659 mmHg 42%
    09:00 +14°C° 0 mm 1 mps 659 mmHg 35%
    10:00 +15°C° 0 mm 1 mps 659 mmHg 33%
    11:00 +18°C° 0 mm 1 mps 659 mmHg 30%
    12:00 +19°C° 0 mm 1 mps 659 mmHg 27%
    13:00 +19°C° 0 mm 1 mps 658 mmHg 27%
    14:00 +19°C° 0 mm 1 mps 658 mmHg 27%
    15:00 +19°C° 0 mm 1 mps 657 mmHg 27%
    16:00 +16°C° 0 mm 1 mps 657 mmHg 31%
    17:00 +14°C° 0 mm 1 mps 656 mmHg 35%
    18:00 +12°C° 0 mm 1 mps 656 mmHg 40%
    19:00 +12°C° 0 mm 1 mps 656 mmHg 41%
    20:00 +11°C° 0 mm 1 mps 656 mmHg 42%
    21:00 +11°C° 0 mm 1 mps 656 mmHg 43%
    22:00 +11°C° 0 mm 1 mps 656 mmHg 43%
    23:00 +10°C° 0 mm 1 mps 656 mmHg 44%

    Day after tomorrow, 22 October, Sunday

    Time Temperature Precipitation Wind Pressure Humidity
    00:00 +10°C° 0 mm 1 mps 656 mmHg 44%
    01:00 +10°C° 0 mm 1 mps 656 mmHg 43%
    02:00 +9°C° 0 mm 1 mps 656 mmHg 43%
    03:00 +9°C° 0 mm 1 mps 655 mmHg 42%
    04:00 +9°C° 0 mm 1 mps 655 mmHg 41%
    05:00 +9°C° 0 mm 1 mps 655 mmHg 41%
    06:00 +8°C° 0 mm 1 mps 655 mmHg 41%
    07:00 +10°C° 0 mm 1 mps 656 mmHg 37%
    08:00 +12°C° 0 mm 1 mps 656 mmHg 34%
    09:00 +14°C° 0 mm 2 mps 656 mmHg 31%
    10:00 +15°C° 0 mm 2 mps 656 mmHg 30%
    11:00 +16°C° 0 mm 2 mps 656 mmHg 29%
    12:00 +17°C° 0 mm 3 mps 656 mmHg 27%
    13:00 +17°C° 0 mm 3 mps 656 mmHg 27%
    14:00 +17°C° 0 mm 3 mps 655 mmHg 27%
    15:00 +17°C° 0 mm 3 mps 655 mmHg 27%
    16:00 +16°C° 0 mm 3 mps 655 mmHg 31%
    17:00 +14°C° 0 mm 2 mps 654 mmHg 35%
    18:00 +13°C° 0 mm 2 mps 654 mmHg 39%
    19:00 +12°C° 0 mm 1 mps 654 mmHg 40%
    20:00 +12°C° 0 mm 1 mps 655 mmHg 42%
    21:00 +11°C° 0 mm 1 mps 655 mmHg 43%
    22:00 +11°C° 0 mm 1 mps 655 mmHg 43%
    23:00 +10°C° 0 mm 1 mps 655 mmHg 44%

    23 October, Monday

    Time Temperature Precipitation Wind Pressure Humidity
    00:00 +10°C° 0 mm 1 mps 655 mmHg 44%
    01:00 +10°C° 0 mm 1 mps 655 mmHg 44%
    02:00 +9°C° 0 mm 1 mps 655 mmHg 45%
    03:00 +9°C° 0 mm 1 mps 655 mmHg 45%
    04:00 +8°C° 0 mm 1 mps 655 mmHg 47%
    05:00 +8°C° 0 mm 1 mps 655 mmHg 48%
    06:00 +8°C° 0 mm 1 mps 655 mmHg 50%
    07:00 +10°C° 0 mm 1 mps 656 mmHg 47%
    08:00 +11°C° 0 mm 1 mps 657 mmHg 43%
    09:00 +13°C° 0 mm 1 mps 657 mmHg 40%
    10:00 +14°C° 0 mm 2 mps 657 mmHg 37%
    11:00 +15°C° 0 mm 2 mps 657 mmHg 34%
    12:00 +16°C° 0 mm 2 mps 657 mmHg 32%
    13:00 +17°C° 0 mm 2 mps 657 mmHg 30%
    14:00 +17°C° 0 mm 2 mps 657 mmHg 29%
    15:00 +17°C° 0 mm 3 mps 657 mmHg 28%
    16:00 +15°C° 0 mm 2 mps 657 mmHg 31%
    17:00 +14°C° 0 mm 2 mps 656 mmHg 35%
    18:00 +12°C° 0 mm 1 mps 656 mmHg 39%
    19:00 +11°C° 0 mm 1 mps 657 mmHg 40%
    20:00 +11°C° 0 mm 1 mps 657 mmHg 42%
    21:00 +9°C° 0 mm 2 mps 657 mmHg 44%
    22:00 +9°C° 0 mm 2 mps 657 mmHg 46%
    23:00 +9°C° 0 mm 2 mps 657 mmHg 49%

    24 October, Tuesday

    Time Temperature Precipitation Wind Pressure Humidity
    00:00 +8°C° 0 mm 2 mps 657 mmHg 51%
    01:00 +8°C° 0 mm 2 mps 657 mmHg 53%
    02:00 +8°C° 0 mm 2 mps 657 mmHg 54%
    03:00 +8°C° 0 mm 2 mps 657 mmHg 56%
    04:00 +8°C° 0 mm 1 mps 657 mmHg 57%
    05:00 +8°C° 0 mm 1 mps 657 mmHg 57%
    06:00 +8°C° 0 mm 1 mps 657 mmHg 58%
    07:00 +9°C° 0 mm 2 mps 658 mmHg 50%
    08:00 +12°C° 0 mm 2 mps 659 mmHg 43%
    09:00 +14°C° 0 mm 2 mps 659 mmHg 35%
    10:00 +15°C° 0 mm 2 mps 659 mmHg 32%
    11:00 +16°C° 0 mm 3 mps 659 mmHg 29%
    12:00 +17°C° 0 mm 3 mps 659 mmHg 26%
    13:00 +18°C° 0 mm 3 mps 659 mmHg 26%
    14:00 +18°C° 0 mm 3 mps 659 mmHg 26%
    15:00 +18°C° 0 mm 3 mps 659 mmHg 26%
    16:00 +16°C° 0 mm 3 mps 659 mmHg 30%
    17:00 +14°C° 0 mm 2 mps 659 mmHg 34%
    18:00 +12°C° 0 mm 2 mps 659 mmHg 38%
    19:00 +12°C° 0 mm 2 mps 659 mmHg 37%
    20:00 +12°C° 0 mm 2 mps 659 mmHg 36%
    21:00 +12°C° 0 mm 2 mps 659 mmHg 35%
    22:00 +10°C° 0 mm 2 mps 659 mmHg 36%
    23:00 +10°C° 0 mm 2 mps 660 mmHg 36%

    25 October, Wednesday

    Time Temperature Precipitation Wind Pressure Humidity
    00:00 +10°C° 0 mm 2 mps 660 mmHg 36%
    01:00 +10°C° 0 mm 2 mps 660 mmHg 38%
    02:00 +10°C° 0 mm 2 mps 660 mmHg 39%
    03:00 +10°C° 0 mm 2 mps 660 mmHg 40%
    04:00 +10°C° 0 mm 2 mps 660 mmHg 42%
    05:00 +9°C° 0 mm 2 mps 660 mmHg 43%
    06:00 +9°C° 0 mm 2 mps 660 mmHg 45%
    07:00 +12°C° 0 mm 2 mps 661 mmHg 41%
    08:00 +14°C° 0 mm 2 mps 661 mmHg 36%
    09:00 +16°C° 0 mm 2 mps 662 mmHg 32%
    10:00 +17°C° 0 mm 3 mps 662 mmHg 30%
    11:00 +19°C° 0 mm 3 mps 662 mmHg 28%
    12:00 +20°C° 0 mm 3 mps 662 mmHg 26%
    13:00 +20°C° 0 mm 3 mps 661 mmHg 26%
    14:00 +20°C° 0 mm 3 mps 661 mmHg 26%
    15:00 +20°C° 0 mm 3 mps 661 mmHg 26%
    16:00 +18°C° 0 mm 3 mps 660 mmHg 30%
    17:00 +16°C° 0 mm 2 mps 660 mmHg 34%
    18:00 +15°C° 0 mm 2 mps 660 mmHg 37%
    19:00 +14°C° 0 mm 2 mps 660 mmHg 38%
    20:00 +14°C° 0 mm 2 mps 660 mmHg 38%
    21:00 +13°C° 0 mm 2 mps 661 mmHg 38%
    22:00 +13°C° 0 mm 1 mps 661 mmHg 39%
    23:00 +13°C° 0 mm 1 mps 661 mmHg 39%
    Show more